Retour au catalogue

STARLINK-36568

ActifCommunicationsSSO
NORAD 68017·PAYLOAD·🇺🇸 United States

Lancé Mar 1, 2026 depuis Vandenberg Space Force Base

Loading…

Prochains Passages (prochaines 24 heures)

TLE

FraisSource: CelesTrak SupGP

Époque: Sep 15, 2026, 03:42 UTC

1 68017C 26040C   26258.15465278  .00066424  00000+0  20623-2 0  2589
2 68017  97.2856 205.5087 0001720  98.7310 299.8458 15.33399995    18

Suivez STARLINK-36568 en temps réel avec AllMySat

Download on the App Store